[[{"header":{"parameterUnit":"m.s-1","parameterCategory":1,"la1":30.2991,"la2":30.254,"lo1":-89.0895,"lo2":-89.0444,"dy":0.0017,"dx":0.0017,"nx":28,"ny":28,"refTime":"2023-10-19T03:00:00:Z","depth":0,"parameterNumber":2,"parameterNumberName":"U-component_of_WINDS"},"data":[0,0,0,0,0,0,0,0,0,0,0,0,0,0,0,0,0,0,0,0,0,0,0,0,0,0,0,0,0,0,0,0,0,0,0,0,0,0,0,0,0,0,0,0,0,0,0,0,0,0,0,0,0,0,0,0,0,0,4.5383,4.5383,0,4.5443,4.5444,4.5445,4.5384,4.5381,4.5379,4.5377,4.544,4.5444,4.5447,0,0,0,0,0,0,0,0,0,0,0,0,0,4.5219,4.5223,4.5382,4.5383,4.5384,4.5443,4.5444,4.5445,4.5384,4.5381,4.5378,4.5376,4.5439,4.5443,4.5448,0,0,0,0,0,0,0,0,0,0,0,0,0,4.5286,4.5224,4.5382,4.5361,4.536,4.5443,4.5444,4.5445,4.5385,4.5381,4.5378,4.5374,4.5437,4.5443,4.5448,4.5556,0,0,4.5466,4.5469,0,0,0,0,0,0,0,0,4.5282,4.5292,4.5363,4.5363,4.5361,4.5402,4.5409,4.5482,4.5386,4.5375,4.5377,4.5373,4.543,4.5436,4.5456,4.5559,4.5562,4.5467,4.547,4.5473,4.5475,0,0,0,0,0,0,0,4.5278,4.5289,4.5406,4.5364,4.5363,4.535,4.5355,4.5423,4.5422,4.5376,4.5372,4.538,4.5429,4.545,4.5457,4.5563,4.5467,4.5472,4.5476,4.5478,4.5765,4.5769,0,0,0,0,0,0,4.5275,4.5286,4.5405,4.5408,4.5312,4.5356,4.5362,4.5393,4.5421,4.5422,4.5383,4.5377,4.5442,4.545,4.5459,4.5591,4.5473,4.5478,4.5482,4.5761,4.5766,4.577,0,0,0,0,0,0,4.5272,4.5286,4.5402,4.5346,4.536,4.5362,4.5397,4.5396,4.5417,4.5426,4.5426,4.5404,4.5439,4.5451,4.5534,4.5592,4.5481,4.5486,4.5756,4.5762,4.5768,4.5855,0,0,0,0,0,0,4.5267,4.5285,4.5325,4.5347,4.5363,4.5475,4.5401,4.54,4.5427,4.542,4.5446,4.5447,4.5438,4.5526,4.554,4.5599,4.5491,4.5751,4.5759,4.5766,4.5847,4.5863,4.5877,0,0,0,0,0,4.5262,4.5345,4.5327,4.5342,4.5412,4.5478,4.5487,4.5474,4.5432,4.5473,4.548,4.5447,4.5584,4.5535,4.555,4.5611,4.5747,4.5756,4.5765,4.584,4.586,4.5877,0,0,0,0,0,0,4.5328,4.5348,4.5327,4.5421,4.5449,4.5468,4.5519,4.5495,4.5535,4.5526,4.5508,4.5515,4.5605,4.5616,4.5561,4.5721,4.5659,4.5672,4.571,4.5729,4.5744,4.574,4.5496,0,0,0,0,0,4.5354,4.5405,4.542,4.5501,4.5516,4.5516,4.5543,4.5532,4.556,4.5571,4.5584,4.5613,4.5663,4.5696,4.5742,4.5848,4.5856,4.5898,4.5914,4.5926,4.5938,4.6,4.6021,4.5801,4.5801,4.58,0,0,4.5407,4.5424,4.5457,4.5515,4.5535,4.5591,4.5525,4.5585,4.5628,4.558,4.5661,4.5672,4.5704,4.58,4.5843,4.5813,4.6001,4.5938,4.5948,4.5953,4.6012,4.6033,4.6051,4.5807,4.5806,4.5805,0,0,4.5533,4.555,4.5622,4.5645,4.5677,4.5677,4.5694,4.5719,4.5725,4.5806,4.5773,4.5823,4.5908,4.5935,4.5959,4.6102,4.6075,4.6118,4.6198,4.6259,4.6276,4.6292,4.6347,4.6367,4.6129,4.6129,4.6129,0,4.5595,4.5677,4.5662,4.5727,4.5755,4.5716,4.5791,4.5814,4.5859,4.5881,4.5846,4.5957,4.5975,4.608,4.6115,4.6135,4.6157,4.6115,4.6275,4.629,4.6304,4.6357,4.6377,4.6135,4.6134,4.6133,4.6133,0,4.5755,4.5812,4.5867,4.5915,4.5949,4.6018,4.6016,4.6053,4.6039,4.6044,4.613,4.6152,4.6204,4.6228,4.6214,4.6333,4.6314,4.6277,4.6215,4.6331,4.6381,4.64,4.6142,4.614,4.6139,4.6137,0,0,4.5922,4.5964,4.5984,4.6008,4.6043,4.6088,4.6158,4.6211,4.6245,4.6279,4.634,4.6416,4.6385,4.6412,4.6402,4.6455,4.6574,4.6413,4.6413,4.6445,4.6712,4.6741,4.6764,4.6555,4.6559,4.6562,4.671,0,4.6052,4.6173,4.6164,4.6279,4.6336,4.6302,4.6364,4.6394,4.6402,4.6452,4.646,4.6516,4.6468,4.6486,4.6537,4.6548,4.6627,4.6537,4.6615,4.6618,4.661,4.6789,4.6819,4.6958,4.6729,4.6732,4.6735,0,4.6219,4.6262,4.6384,4.6417,4.644,4.6495,4.6546,4.6593,4.6628,4.6631,4.6665,4.6647,4.6721,4.6657,4.6761,4.67,4.6732,4.6743,4.6748,4.6756,4.6684,4.6806,4.7001,4.7024,4.6764,4.6762,4.676,0,4.6335,4.6422,4.6508,4.6529,4.6567,4.6608,4.6627,4.6658,4.6692,4.6737,4.676,4.6812,4.6842,4.6884,4.6882,4.6835,4.699,4.6924,4.6997,4.6998,4.7032,4.703,4.7239,4.7048,4.7048,4.7047,4.7047,0,4.6483,4.6559,4.6561,4.6614,4.6701,4.6691,4.6778,4.6792,4.6821,4.6879,4.6852,4.6907,4.69,4.6956,4.6955,4.7044,4.7057,4.7063,4.7062,4.7067,4.7067,4.7089,4.708,4.7053,4.7052,4.705,4.705,0,4.6626,4.6629,4.6721,4.6752,4.6762,4.6825,4.6853,4.6905,4.6912,4.6985,4.7002,4.7013,4.7078,4.7081,4.7154,4.7154,4.7265,4.7252,4.7253,4.7252,4.7326,4.7321,4.7558,4.7591,4.7376,4.7378,4.738,0,4.6721,4.678,4.6818,4.6856,4.6877,4.6936,4.6972,4.6966,4.7005,4.7054,4.7101,4.7164,4.7214,4.732,4.7336,4.7394,4.7384,4.7464,4.7393,4.7398,4.739,4.7388,4.7396,4.7478,4.748,4.7482,4.7484,0,4.6891,4.6892,4.6944,4.7,4.7044,4.7087,4.7127,4.7159,4.7159,4.7204,4.7271,4.731,4.7389,4.7453,4.7511,4.7531,4.751,4.7506,4.7527,4.7533,4.7534,4.7539,4.7294,4.7501,4.7499,4.7498,4.7497,4.7496,4.7016,4.7069,4.7106,4.7167,4.7198,4.7237,4.7289,4.7305,4.736,4.7424,4.7417,4.7493,4.7532,4.7608,4.7634,4.7695,4.7668,4.7697,4.7704,4.7713,4.7723,4.7522,4.7705,4.7704,4.7704,4.7704,4.7703,0,4.7188,4.7212,4.7268,4.7327,4.7377,4.7352,4.7396,4.744,4.7507,4.7545,4.7597,4.7677,4.7741,4.7764,4.7827,4.7872,4.7864,4.7889,4.7886,4.7893,4.7741,4.7719,4.7894,4.7894,4.7894,4.7894,4.7894,4.7894,4.7284,4.7374,4.738,4.7487,4.751,4.7585,4.7613,4.7651,4.7682,4.7773,4.7827,4.7841,4.7875,4.7941,4.8,4.8006,4.8032,4.8062,4.8064,4.7922,4.7903,4.7884,4.7863,4.8067,4.8067,4.8211,4.8212,4.8213]},{"header":{"parameterUnit":"m.s-1","parameterCategory":1,"la1":30.2991,"la2":30.254,"lo1":-89.0895,"lo2":-89.0444,"dy":0.0017,"dx":0.0017,"nx":28,"ny":28,"refTime":"2023-10-19T03:00:00:Z","depth":0,"parameterNumber":3,"parameterNumberName":"V-component_of_WINDS"},"data":[0,0,0,0,0,0,0,0,0,0,0,0,0,0,0,0,0,0,0,0,0,0,0,0,0,0,0,0,0,0,0,0,0,0,0,0,0,0,0,0,0,0,0,0,0,0,0,0,0,0,0,0,0,0,0,0,0,0,-0.0595,-0.0594,0,-0.0468,-0.0467,-0.0465,-0.049,-0.0493,-0.0495,-0.0497,-0.0358,-0.0352,-0.0347,0,0,0,0,0,0,0,0,0,0,0,0,0,-0.0853,-0.0848,-0.0596,-0.0594,-0.0592,-0.0468,-0.0467,-0.0465,-0.049,-0.0493,-0.0496,-0.0498,-0.036,-0.0353,-0.0346,0,0,0,0,0,0,0,0,0,0,0,0,0,-0.0735,-0.0847,-0.0596,-0.059,-0.0588,-0.0469,-0.0467,-0.0464,-0.0489,-0.0493,-0.0496,-0.05,-0.0362,-0.0354,-0.0345,-0.022,0,0,-0.0318,-0.0314,0,0,0,0,0,0,0,0,-0.0741,-0.0725,-0.0593,-0.059,-0.0588,-0.0499,-0.0506,-0.0382,-0.0488,-0.0527,-0.0497,-0.0501,-0.0402,-0.039,-0.0358,-0.0214,-0.0208,-0.0317,-0.0312,-0.0308,-0.0306,0,0,0,0,0,0,0,-0.075,-0.0731,-0.0545,-0.0591,-0.0588,-0.0591,-0.0579,-0.0483,-0.0446,-0.0524,-0.0525,-0.051,-0.0401,-0.0366,-0.0355,-0.0206,-0.0318,-0.031,-0.0304,-0.0301,0.0046,0.0049,0,0,0,0,0,0,-0.0761,-0.0737,-0.0549,-0.0541,-0.0675,-0.0584,-0.057,-0.0524,-0.0447,-0.0439,-0.0507,-0.0512,-0.038,-0.0365,-0.035,-0.02,-0.0308,-0.03,-0.0295,0.0042,0.0047,0.0051,0,0,0,0,0,0,-0.0766,-0.0744,-0.0554,-0.064,-0.0616,-0.0576,-0.0524,-0.0519,-0.0485,-0.0435,-0.0427,-0.0479,-0.0382,-0.0362,-0.0253,-0.0196,-0.0296,-0.0288,0.0037,0.0043,0.0049,0.01,0,0,0,0,0,0,-0.0774,-0.0746,-0.07,-0.0639,-0.0611,-0.0462,-0.0521,-0.0514,-0.0471,-0.0475,-0.0407,-0.0398,-0.0383,-0.0266,-0.0245,-0.0186,-0.0281,0.0032,0.004,0.0047,0.0094,0.0107,0.0119,0,0,0,0,0,-0.0783,-0.0688,-0.0697,-0.0674,-0.0553,-0.0458,-0.0442,-0.0429,-0.0466,-0.0419,-0.0386,-0.0401,-0.0206,-0.0255,-0.0231,-0.0168,0.0029,0.0038,0.0046,0.0088,0.0105,0.0119,0,0,0,0,0,0,-0.074,-0.068,-0.0689,-0.0573,-0.0521,-0.0463,-0.0403,-0.0412,-0.0346,-0.0353,-0.0337,-0.0321,-0.0211,-0.0178,-0.0234,-0.0044,-0.0093,-0.0079,-0.007,-0.0054,-0.0041,-0.0052,-0.0274,0,0,0,0,0,-0.0718,-0.0648,-0.0598,-0.0499,-0.0474,-0.0442,-0.04,-0.0395,-0.034,-0.0317,-0.0277,-0.022,-0.0146,-0.0098,-0.0027,0.0099,0.0113,0.0154,0.0167,0.0177,0.0188,0.0256,0.0274,0.008,0.008,0.0079,0,0,-0.0669,-0.0628,-0.0584,-0.049,-0.0449,-0.0376,-0.0424,-0.0343,-0.0288,-0.0304,-0.02,-0.0168,-0.0104,0.0013,0.0067,0.0044,0.0245,0.0188,0.0195,0.0202,0.0267,0.0285,0.0302,0.0086,0.0085,0.0084,0,0,-0.0545,-0.0506,-0.0421,-0.038,-0.0319,-0.0299,-0.0279,-0.0219,-0.02,-0.0096,-0.0107,-0.0039,0.0088,0.0134,0.0174,0.0315,0.0304,0.0338,0.0403,0.0469,0.0484,0.0498,0.0547,0.0565,0.035,0.035,0.035,0,-0.0492,-0.0385,-0.0375,-0.0295,-0.0253,-0.0267,-0.0179,-0.0139,-0.0056,-0.0026,-0.0054,0.0104,0.0147,0.0274,0.0308,0.0341,0.0366,0.0329,0.0481,0.0495,0.0508,0.0555,0.0573,0.0353,0.0353,0.0353,0.0352,0,-0.0323,-0.0248,-0.0186,-0.0111,-0.0061,0.0023,0.0047,0.0096,0.0097,0.012,0.0227,0.0277,0.0357,0.0388,0.0392,0.0516,0.0499,0.0476,0.0427,0.0529,0.0574,0.0592,0.0358,0.0357,0.0356,0.0355,0,0,-0.0168,-0.009,-0.0067,-0.0034,0.0032,0.0092,0.0176,0.025,0.0292,0.035,0.0421,0.0528,0.0506,0.0552,0.056,0.0618,0.0725,0.0588,0.059,0.061,0.0864,0.0879,0.09,0.0719,0.0722,0.0725,0.0858,0,-0.0039,0.0104,0.0115,0.0246,0.0315,0.0303,0.0376,0.0425,0.045,0.0514,0.0542,0.0617,0.0583,0.061,0.0667,0.07,0.0776,0.0691,0.0785,0.0789,0.0767,0.0923,0.094,0.1063,0.0875,0.0878,0.088,0,0.0131,0.0189,0.0326,0.038,0.041,0.0475,0.0544,0.0605,0.0662,0.0675,0.0725,0.0725,0.0813,0.0761,0.0882,0.0824,0.0864,0.0886,0.0891,0.0899,0.0839,0.0934,0.1103,0.112,0.0908,0.0906,0.0904,0,0.0228,0.0342,0.0437,0.0467,0.0534,0.0579,0.061,0.0662,0.0707,0.0768,0.0797,0.087,0.0909,0.0966,0.0987,0.0947,0.1107,0.1057,0.1121,0.112,0.1154,0.1151,0.1329,0.1183,0.1182,0.1182,0.1182,0,0.037,0.0454,0.0481,0.054,0.0633,0.0646,0.0739,0.0768,0.0815,0.088,0.0876,0.0938,0.0962,0.1029,0.1046,0.1143,0.1162,0.1176,0.1179,0.1175,0.1173,0.1201,0.1192,0.1187,0.1186,0.1185,0.1184,0,0.0493,0.0515,0.0618,0.0672,0.0688,0.0754,0.0802,0.0859,0.0882,0.0965,0.0985,0.1022,0.11,0.1126,0.1223,0.1234,0.1346,0.1343,0.1326,0.1326,0.1388,0.1381,0.1589,0.1616,0.1453,0.1454,0.1456,0,0.0581,0.0645,0.0705,0.0746,0.0778,0.0846,0.089,0.0906,0.0952,0.1021,0.107,0.1147,0.1208,0.1334,0.1371,0.1444,0.1442,0.151,0.1453,0.1446,0.1441,0.1436,0.1442,0.152,0.1521,0.1523,0.1524,0,0.0735,0.0742,0.0804,0.087,0.0922,0.0976,0.1027,0.1063,0.1087,0.1139,0.1217,0.1265,0.1361,0.1437,0.1511,0.1545,0.1539,0.1541,0.156,0.1555,0.1542,0.1548,0.1353,0.1536,0.1535,0.1534,0.1534,0.1533,0.0843,0.0898,0.0947,0.1017,0.1057,0.1105,0.116,0.1189,0.1253,0.133,0.1337,0.1421,0.1476,0.1574,0.1612,0.1679,0.166,0.1687,0.1694,0.17,0.1703,0.1532,0.1693,0.1693,0.1693,0.1692,0.1692,0,0.0994,0.1025,0.1089,0.1159,0.1214,0.1201,0.1258,0.1305,0.1377,0.1428,0.1488,0.1577,0.1651,0.1693,0.1767,0.1813,0.1812,0.1832,0.1827,0.1835,0.1717,0.1693,0.1831,0.1831,0.1831,0.1831,0.1831,0.1831,0.1079,0.1171,0.1184,0.1296,0.1328,0.1407,0.144,0.1485,0.1525,0.1624,0.1684,0.171,0.1757,0.1834,0.1902,0.1912,0.1939,0.1961,0.1969,0.1858,0.1844,0.183,0.1807,0.1967,0.1967,0.2081,0.2083,0.2083]}]]